Retour au catalogue

STARLINK-11730

ActifCommunicationsVLEO
NORAD 64074·PAYLOAD·🇺🇸 United States

Lancé May 21, 2025 depuis Cape Canaveral Space Force Station

Loading…

Prochains Passages (prochaines 24 heures)

TLE

FraisSource: CelesTrak SupGP

Époque: Sep 14, 2026, 20:57 UTC

1 64074C 25107L   26257.87340278  .00115510  00000+0  89697-3 0  2578
2 64074  43.0009  38.2057 0001689 277.4677 249.2948 15.70785272    11

Suivez STARLINK-11730 en temps réel avec AllMySat

Download on the App Store